Vancouver, WA

6:40 PM PST on February 25, 2017 (GMT -0800)
Pearson

Weather History for KVUO - September, 2013

Change the Weather History Date:

Thursday, September 5, 2013

  Actual Average Record
Temperature  
Mean Temperature 66 °F 67 °F  
Max Temperature 70 °F 79 °F 102 °F (1944)
Min Temperature 62 °F 54 °F 37 °F (1969)
Degree Days  
Heating Degree Days 0    
Month to date heating degree days 0  
Since 1 July heating degree days 13  
Cooling Degree Days 1    
Month to date cooling degree days 20  
Year to date cooling degree days 396  
Growing Degree Days 14 (Base 50)    
Moisture  
Dew Point 59 °F    
Average Humidity 82    
Maximum Humidity 93    
Minimum Humidity 70    
Precipitation  
Precipitation 0.12 in 0.03 in 1.30 in (1919)
Month to date precipitation 0.27 0.16  
Year to date precipitation 16.10 21.99  
Snow  
Snow 0.00 in - - ()
Month to date snowfall 0.0  
Snow Depth 0.00 in    
Sea Level Pressure  
Sea Level Pressure 29.99 in    
Wind  
Wind Speed 3 mph (NE)    
Max Wind Speed 17 mph    
Max Gust Speed 25 mph    
Visibility 8 miles    
Events Rain , Thunderstorm    
T = Trace of Precipitation, MM = Missing Value Source: NWS Daily Summary

Daily Weather History Graph

Daily Weather History Graph

Search for Another Location

Airport or City:

Trip Planner

Search our weather history database for the weather conditions in past years. The results will help you decide how hot, cold, wet, or windy it might be!

Date:

Astronomy

Sep. 05, 2013 Rise Set
Actual Time 6:37 AM PDT 7:40 PM PDT
Civil Twilight 6:06 AM PDT 8:10 PM PDT
Nautical Twilight 5:30 AM PDT 8:46 PM PDT
Astronomical Twilight 4:51 AM PDT 9:25 PM PDT
Moon 6:57 AM PDT (9/5) 7:29 PM PDT (9/5)
Length of Visible Light 14h 03m
Length of Day
13h 03m
New Moon, 0% of the Moon is Illuminated
Sep 5
New Moon
Sep 12
First Quarter
Sep 19
Full
Sep 26
Last Quarter
Oct 4
New

Hourly Weather History & Observations

Time (PDT) Temp. Dew Point Humidity Pressure Visibility Wind Dir Wind Speed Gust Speed Precip Events Conditions
12:53 AM 66.0 °F 57.9 °F 75% 30.02 in 10.0 mi NW 5.8 mph - 0.00 in Thunderstorm Overcast
1:15 AM 64.4 °F 57.2 °F 77% 30.01 in 10.0 mi NNW 4.6 mph - 0.01 in Rain Light Rain
1:53 AM 64.0 °F 59.0 °F 84% 30.00 in 10.0 mi North 3.5 mph - 0.01 in   Mostly Cloudy
2:53 AM 63.0 °F 59.0 °F 87% 30.01 in 10.0 mi Calm Calm - N/A   Mostly Cloudy
3:53 AM 63.0 °F 59.0 °F 87% 29.99 in 10.0 mi Calm Calm - N/A   Mostly Cloudy
4:53 AM 64.0 °F 59.0 °F 84% 29.99 in 10.0 mi West 5.8 mph - N/A   Mostly Cloudy
5:04 AM 62.6 °F 60.8 °F 94% 29.99 in 10.0 mi WNW 4.6 mph - N/A   Mostly Cloudy
5:53 AM 64.0 °F 59.0 °F 84% 29.99 in 10.0 mi Calm Calm - N/A   Overcast
6:03 AM 62.6 °F 59.0 °F 88% 29.98 in 10.0 mi Calm Calm - N/A   Overcast
6:53 AM 63.0 °F 57.9 °F 84% 29.99 in 10.0 mi Calm Calm - N/A   Overcast
7:53 AM 64.9 °F 59.0 °F 81% 30.00 in 10.0 mi Calm Calm - N/A   Overcast
8:53 AM 64.9 °F 57.9 °F 78% 30.00 in 10.0 mi Calm Calm - N/A   Overcast
9:53 AM 64.9 °F 57.9 °F 78% 30.00 in 10.0 mi NNW 5.8 mph - N/A   Overcast
10:53 AM 66.0 °F 59.0 °F 78% 30.00 in 10.0 mi Calm Calm - N/A   Overcast
11:53 AM 66.9 °F 59.0 °F 76% 29.99 in 10.0 mi NW 5.8 mph - N/A   Overcast
12:53 PM 68.0 °F 59.0 °F 73% 29.99 in 10.0 mi NNW 4.6 mph - N/A   Overcast
1:28 PM 68.0 °F 59.0 °F 73% 29.98 in 10.0 mi North 3.5 mph - N/A   Overcast
1:53 PM 69.1 °F 59.0 °F 70% 29.99 in 10.0 mi North 5.8 mph - N/A   Overcast
2:38 PM 68.0 °F 59.0 °F 73% 29.98 in 10.0 mi NNW 6.9 mph - N/A   Overcast
2:53 PM 68.0 °F 59.0 °F 73% 29.98 in 10.0 mi NNW 3.5 mph - N/A   Overcast
3:53 PM 69.1 °F 59.0 °F 70% 29.96 in 10.0 mi Variable 4.6 mph - N/A   Overcast
4:32 PM 69.8 °F 59.0 °F 68% 29.95 in 10.0 mi WNW 5.8 mph - N/A   Overcast
4:53 PM 68.0 °F 60.1 °F 76% 29.96 in 10.0 mi WNW 8.1 mph - N/A   Overcast
5:04 PM 68.0 °F 60.8 °F 78% 29.97 in 10.0 mi WNW 4.6 mph - N/A   Overcast
5:49 PM 66.2 °F 60.8 °F 83% 29.98 in 9.0 mi SSE 9.2 mph 17.3 mph 0.00 in Rain Light Rain
5:53 PM 66.0 °F 61.0 °F 84% 29.99 in 7.0 mi South 17.3 mph 25.3 mph 0.00 in Rain Light Rain
6:01 PM 62.6 °F 60.8 °F 94% 29.99 in 1.8 mi SSE 10.4 mph 25.3 mph 0.04 in Rain Rain
6:10 PM 62.6 °F 60.8 °F 94% 29.99 in 1.2 mi South 8.1 mph 18.4 mph 0.08 in Rain Light Rain
6:15 PM 62.6 °F 60.8 °F 94% 29.99 in 2.0 mi Variable 5.8 mph - 0.09 in Rain Light Rain
6:19 PM 62.6 °F 60.8 °F 94% 29.99 in 3.0 mi Variable 4.6 mph - 0.09 in Rain Light Rain
6:53 PM 63.0 °F 60.1 °F 90% 29.98 in 10.0 mi ESE 6.9 mph - 0.11 in Rain Light Rain
7:12 PM 62.6 °F 59.0 °F 88% 29.98 in 10.0 mi SE 10.4 mph 17.3 mph 0.00 in Rain Light Rain
7:51 PM 62.6 °F 59.0 °F 88% 29.99 in 10.0 mi ESE 9.2 mph - 0.00 in   Overcast
7:53 PM 62.1 °F 59.0 °F 90% 30.00 in 10.0 mi SE 6.9 mph - 0.00 in   Overcast
8:16 PM 62.6 °F 59.0 °F 88% 30.00 in 4.0 mi SE 5.8 mph - 0.01 in Rain Light Rain
8:53 PM 62.1 °F 59.0 °F 90% 30.00 in 7.0 mi SE 4.6 mph - 0.03 in   Overcast
9:24 PM 62.6 °F 60.8 °F 94% 30.01 in 2.5 mi SE 4.6 mph - 0.06 in Rain Rain
9:35 PM 60.8 °F 60.8 °F 100% 30.02 in 4.0 mi SE 5.8 mph - 0.06 in Rain Light Rain
9:53 PM 60.1 °F 57.9 °F 93% 30.03 in 5.0 mi SE 5.8 mph - 0.07 in Rain Light Rain
10:53 PM 59.0 °F 57.0 °F 93% 30.03 in 6.0 mi Variable 4.6 mph - 0.05 in Rain Light Rain
11:53 PM 60.1 °F 57.0 °F 90% 30.03 in 10.0 mi SE 6.9 mph - 0.02 in Rain Light Rain